Location: Martley
(52.2333°N, 2.3667°W)
Time: 20:24:30
(UTC+00:00)

ADEOS Rocket - Pass Details

Date: 11 December 2019
Orbit: 858 x 1307 km, 98.7° (Epoch: 18 January)

Event Time Altitude Azimuth Distance (km) Brightness Sun altitude
Rises 05:38:24 0° 143° (SE) 4,025 6.9 -21.6°
Reaches altitude 10° 05:41:10 10° 139° (SE) 3,004 6.3 -21.2°
Maximum altitude 05:47:40 51° 66° (ENE) 1,295 3.9 -20.2°
Drops below altitude 10° 05:53:33 10° 352° (N) 2,725 5.1 -19.3°
Sets 05:55:57 0° 348° (NNW) 3,623 5.7 -18.9°
